Weather History for Hill City, KS

Change the Weather History Date:

Thursday, September 6, 2012

  Actual Average Record
Temperature  
Mean Temperature 75 °F 72 °F  
Max Temperature 98 °F 86 °F 107 °F (1939)
Min Temperature 52 °F 57 °F 36 °F (1956)
Cooling Degree Days 10    
Growing Degree Days 25 (Base 50)    
Moisture  
Dew Point 58 °F    
Average Humidity 67    
Maximum Humidity 94    
Minimum Humidity 26    
Precipitation  
Precipitation 0.93 in 0.07 in 0.93 in (2012)
Month to date precipitation 1.04 0.49  
Year to date precipitation 7.87 18.37  
Sea Level Pressure  
Sea Level Pressure 29.88 in    
Wind  
Wind Speed 8 mph (SE)    
Max Wind Speed 48 mph    
Max Gust Speed 66 mph    
Visibility 8 miles    
Events Fog , Rain , Thunderstorm    
T = Trace of Precipitation, MM = Missing Value Source: NWS Daily Summary

Daily Weather History Graph

Daily Weather History Graph

Search for Another Location

Airport:

Trip Planner

Search our weather history database for the weather conditions in past years. The results will help you decide how hot, cold, wet, or windy it might be!

Date:

Astronomy

Sep. 06, 2012 Rise Set
Actual Time 7:12 AM CDT 8:01 PM CDT
Civil Twilight 6:45 AM CDT 8:28 PM CDT
Nautical Twilight 6:13 AM CDT 9:00 PM CDT
Astronomical Twilight 5:39 AM CDT 9:34 PM CDT
Moon 11:15 PM CDT (9/6) 1:11 PM CDT (9/6)
Length of Visible Light 13h 43m
Length of Day
12h 48m
Waning Gibbous, 67% of the Moon is Illuminated
Sep 6
Waning Gibbous
Sep 8
Last Quarter
Sep 15
New
Sep 22
First Quarter
Sep 29
Full

Hourly Weather History & Observations

Time (CDT) Temp. Heat Index Dew Point Humidity Pressure Visibility Wind Dir Wind Speed Gust Speed Precip Events Conditions
12:53 AM 55.9 °F - 48.0 °F 75% 29.97 in 10.0 mi Calm Calm - N/A   Clear
1:53 AM 55.0 °F - 48.0 °F 77% 29.96 in 10.0 mi Calm Calm - N/A   Clear
2:53 AM 54.0 °F - 48.0 °F 80% 29.97 in 10.0 mi North 3.5 mph - N/A   Clear
3:53 AM 53.1 °F - 48.0 °F 83% 29.97 in 10.0 mi Calm Calm - N/A   Clear
4:53 AM 54.0 °F - 48.9 °F 83% 29.97 in 10.0 mi Calm Calm - N/A   Clear
5:53 AM 53.1 °F - 48.0 °F 83% 29.96 in 10.0 mi NE 4.6 mph - N/A   Clear
6:53 AM 53.1 °F - 48.0 °F 83% 29.96 in 10.0 mi ESE 4.6 mph - N/A   Clear
7:53 AM 55.9 °F - 50.0 °F 80% 29.99 in 10.0 mi Calm Calm - N/A   Clear
8:53 AM 64.0 °F - 50.0 °F 60% 29.97 in 10.0 mi SE 4.6 mph - N/A   Clear
9:53 AM 73.0 °F - 55.0 °F 53% 29.95 in 10.0 mi SSE 8.1 mph - N/A   Clear
10:53 AM 80.1 °F 80.6 °F 57.9 °F 47% 29.92 in 10.0 mi Variable 5.8 mph - N/A   Clear
11:53 AM 84.9 °F 84.8 °F 60.1 °F 43% 29.90 in 10.0 mi Variable 5.8 mph 16.1 mph N/A   Clear
12:53 PM 90.0 °F 89.1 °F 59.0 °F 35% 29.87 in 10.0 mi SSW 11.5 mph - N/A   Clear
1:53 PM 91.9 °F 91.5 °F 60.1 °F 34% 29.84 in 10.0 mi South 11.5 mph 21.9 mph N/A   Clear
2:53 PM 93.9 °F 93.6 °F 60.1 °F 32% 29.81 in 10.0 mi SW 9.2 mph - N/A   Clear
3:53 PM 97.0 °F 96.5 °F 59.0 °F 28% 29.78 in 10.0 mi South 12.7 mph 20.7 mph N/A   Clear
4:53 PM 97.0 °F 95.7 °F 57.0 °F 26% 29.75 in 10.0 mi SSW 12.7 mph 21.9 mph N/A   Clear
5:41 PM 95.0 °F 94.4 °F 59.0 °F 30% 29.78 in 10.0 mi South 21.9 mph 28.8 mph N/A Thunderstorm Scattered Clouds
5:53 PM 93.9 °F 93.2 °F 59.0 °F 31% 29.75 in 10.0 mi South 13.8 mph 27.6 mph N/A Thunderstorm Thunderstorm
6:02 PM 73.4 °F - 64.4 °F 73% 29.86 in 1.8 mi North 32.2 mph 47.2 mph 0.06 in Rain , Thunderstorm Thunderstorms and Rain
6:05 PM 69.8 °F - 66.2 °F 88% 29.87 in 0.8 mi NNW 48.3 mph 65.6 mph 0.15 in Rain , Thunderstorm Heavy Thunderstorms and Rain
6:09 PM 69.8 °F - 66.2 °F 88% 29.90 in 0.2 mi NW 13.8 mph 65.6 mph 0.34 in Fog , Rain , Thunderstorm Heavy Thunderstorms and Rain
6:14 PM 71.6 °F - 66.2 °F 83% 29.90 in 0.5 mi NNE 19.6 mph 65.6 mph 0.42 in Rain , Thunderstorm Heavy Thunderstorms and Rain
6:18 PM 69.8 °F - 64.4 °F 83% 29.91 in 1.0 mi NE 29.9 mph 39.1 mph 0.49 in Rain , Thunderstorm Heavy Thunderstorms and Rain
6:21 PM 66.2 °F - 64.4 °F 94% 29.91 in 0.5 mi NNE 34.5 mph 47.2 mph 0.68 in Fog , Rain , Thunderstorm Heavy Thunderstorms and Rain
6:28 PM 73.4 °F - 60.8 °F 65% 29.85 in 0.5 mi East 12.7 mph 47.2 mph 0.90 in Rain , Thunderstorm Heavy Thunderstorms and Rain
6:34 PM 68.0 °F - 64.4 °F 88% 29.85 in 1.5 mi ENE 19.6 mph 40.3 mph 0.92 in Rain , Thunderstorm Light Thunderstorms and Rain
6:38 PM 69.8 °F - 64.4 °F 83% 29.86 in 3.0 mi ENE 16.1 mph 29.9 mph 0.93 in Rain , Thunderstorm Light Thunderstorms and Rain
6:53 PM 72.0 °F - 64.9 °F 78% 29.81 in 10.0 mi SE 15.0 mph 26.5 mph 0.93 in Thunderstorm Thunderstorm
8:53 PM 68.0 °F - 64.9 °F 90% 29.79 in 10.0 mi WSW 3.5 mph - N/A   Clear
9:53 PM 71.1 °F - 62.1 °F 73% 29.80 in 10.0 mi Calm Calm - N/A   Clear
10:53 PM 72.0 °F - 63.0 °F 73% 29.81 in 10.0 mi ESE 4.6 mph - N/A   Clear
11:53 PM 70.0 °F - 62.1 °F 76% 29.80 in 10.0 mi SW 3.5 mph - N/A   Clear